OK2ARM-12 Weather Reports


Display with metric or nautical units.
time (UTC)temp
F
wind
direction
speed
MPH
gust
MPH
rain 1hr
in
rain 24hr
in
rain mn
in
humidity
%
barometer
mb
20260906072702 56 0.0 0.0 0.00 0.00 0.00 65 1027.4
20260906071703 57 0.0 0.0 0.00 0.00 0.00 65 1027.3
20260906070703 56 0.0 0.0 0.00 0.00 0.00 68 1027.2
20260906064438 55 0.0 0.0 0.00 0.00 0.00 69 1027.0
20260906063439 54 0.0 0.0 0.00 0.00 0.00 72 1026.9
20260906062439 52 0.0 0.0 0.00 0.00 0.00 73 1027.0
20260906060215 51 0.0 0.0 0.00 0.00 0.00 75 1026.8
20260906055215 51 0.0 0.0 0.00 0.00 0.00 76 1026.8
20260906054215 51 0.0 0.0 0.00 0.00 0.00 75 1026.8
20260906053215 51 0.0 0.0 0.00 0.00 0.00 76 1026.6
20260906050951 51 0.0 0.0 0.00 0.00 0.00 75 1026.5
20260906045951 51 0.0 0.0 0.00 0.00 0.00 77 1026.4
20260906044951 51 0.0 0.0 0.00 0.00 0.00 77 1026.2
20260906043951 50 0.0 0.0 0.00 0.00 0.00 78 1026.2
20260906042951 50 0.0 0.0 0.00 0.00 0.00 77 1026.1
20260906041952 51 0.0 0.0 0.00 0.00 0.00 77 1026.0
20260906040951 51 0.0 0.0 0.00 0.00 0.00 76 1025.9
20260906034726 51 0.0 0.0 0.00 0.00 0.00 76 1025.8
20260906033726 51 0.0 0.0 0.00 0.00 0.00 75 1025.8
20260906032727 51 0.0 0.0 0.00 0.00 0.00 75 1025.6
20260906031727 51 0.0 0.0 0.00 0.00 0.00 74 1025.6
20260906030727 51 0.0 0.0 0.00 0.00 0.00 74 1025.5
20260906025727 52 0.0 0.0 0.00 0.00 0.00 73 1025.4
20260906024727 52 0.0 0.0 0.00 0.00 0.00 73 1025.4
20260906023727 52 0.0 0.0 0.00 0.00 0.00 73 1025.3
20260906022727 52 0.0 0.0 0.00 0.00 0.00 73 1025.2
20260906021727 52 0.0 0.0 0.00 0.00 0.00 72 1025.2
20260906020726 52 0.0 0.0 0.00 0.00 0.00 71 1025.1
20260906015726 52 0.0 0.0 0.00 0.00 0.00 70 1025.0
20260906014727 53 0.0 0.0 0.00 0.00 0.00 70 1025.0
20260906013727 53 0.0 0.0 0.00 0.00 0.00 70 1024.9
20260906012727 53 0.0 0.0 0.00 0.00 0.00 70 1024.9
20260906005239 53 0.0 0.0 0.00 0.00 0.00 69 1024.8
20260906004239 53 0.0 0.0 0.00 0.00 0.00 68 1024.8
20260906003239 53 0.0 0.0 0.00 0.00 0.00 68 1024.7
20260906002239 53 0.0 0.0 0.00 0.00 0.00 67 1024.7
20260906001239 54 0.0 0.0 0.00 0.00 0.00 66 1024.5
20260906000241 54 0.0 0.0 0.00 0.00 0.00 66 1024.5
20260905235239 54 0.0 0.0 0.00 0.00 0.00 65 1024.4
20260905234239 55 0.0 0.0 0.00 0.00 0.00 65 1024.3
20260905233239 55 0.0 0.0 0.00 0.00 0.00 64 1024.3
20260905232239 55 0.0 0.0 0.00 0.00 0.00 63 1024.2
20260905231239 55 0.0 0.0 0.00 0.00 0.00 63 1024.1
20260905230239 55 0.0 0.0 0.00 0.00 0.00 64 1024.0
20260905225239 55 0.0 0.0 0.00 0.00 0.00 64 1023.9
20260905224239 55 0.0 0.0 0.00 0.00 0.00 63 1024.0
20260905223239 55 0.0 0.0 0.00 0.00 0.00 63 1024.0
20260905214529 57 0.0 0.0 0.00 0.00 0.00 61 1023.8
20260905213529 57 0.0 0.0 0.00 0.00 0.00 61 1023.7
20260905212528 57 0.0 0.0 0.00 0.00 0.00 61 1023.6
20260905211533 57 0.0 0.0 0.00 0.00 0.00 60 1023.4
20260905210529 58 0.0 0.0 0.00 0.00 0.00 60 1023.3
20260905204305 59 0.0 0.0 0.00 0.00 0.00 59 1023.2
20260905203305 59 0.0 0.0 0.00 0.00 0.00 58 1023.1
20260905201041 59 0.0 0.0 0.00 0.00 0.00 57 1022.9
20260905200043 59 0.0 0.0 0.00 0.00 0.00 58 1022.8
20260905195041 60 0.0 0.0 0.00 0.00 0.00 57 1022.7
20260905194041 60 0.0 0.0 0.00 0.00 0.00 57 1022.5
20260905193041 60 0.0 0.0 0.00 0.00 0.00 57 1022.4
20260905192041 60 0.0 0.0 0.00 0.00 0.00 56 1022.4
20260905185817 60 0.0 0.0 0.00 0.00 0.00 57 1022.3
20260905184817 60 0.0 0.0 0.00 0.00 0.00 57 1022.1
20260905183817 61 0.0 0.0 0.00 0.00 0.00 56 1021.8
20260905182817 61 0.0 0.0 0.00 0.00 0.00 55 1021.7
20260905181817 62 0.0 0.0 0.00 0.00 0.00 54 1021.4
20260905174330 64 0.0 0.0 0.00 0.00 0.00 53 1020.9
20260905173330 64 0.0 0.0 0.00 0.00 0.00 52 1020.8
20260905171106 65 0.0 0.0 0.00 0.00 0.00 49 1020.6
20260905170107 66 0.0 0.0 0.00 0.00 0.00 48 1020.5
20260905163843 66 0.0 0.0 0.00 0.00 0.00 46 1020.3
20260905162843 66 0.0 0.0 0.00 0.00 0.00 46 1020.3
20260905161843 66 0.0 0.0 0.00 0.00 0.00 49 1020.3
20260905160843 65 0.0 0.0 0.00 0.00 0.00 50 1020.0
20260905155843 65 0.0 0.0 0.00 0.00 0.00 50 1020.0
20260905153619 67 0.0 0.0 0.00 0.00 0.00 47 1019.9
20260905152620 66 0.0 0.0 0.00 0.00 0.00 46 1020.1
20260905151619 67 0.0 0.0 0.00 0.00 0.00 45 1020.0
20260905150619 66 0.0 0.0 0.00 0.00 0.00 46 1020.0
20260905145619 66 0.0 0.0 0.00 0.00 0.00 44 1019.9
20260905144619 66 0.0 0.0 0.00 0.00 0.00 45 1020.0
20260905143619 65 0.0 0.0 0.00 0.00 0.00 47 1019.9
20260905142619 65 0.0 0.0 0.00 0.00 0.00 46 1020.1
20260905141619 65 0.0 0.0 0.00 0.00 0.00 44 1020.1
20260905140619 67 0.0 0.0 0.00 0.00 0.00 45 1020.2
20260905135619 65 0.0 0.0 0.00 0.00 0.00 48 1020.4
20260905133355 65 0.0 0.0 0.00 0.00 0.00 48 1020.4
20260905131132 67 0.0 0.0 0.00 0.00 0.00 44 1020.4
20260905130132 65 0.0 0.0 0.00 0.00 0.00 46 1020.4
20260905125132 67 0.0 0.0 0.00 0.00 0.00 46 1020.5
20260905124132 68 0.0 0.0 0.00 0.00 0.00 44 1020.4
20260905123131 67 0.0 0.0 0.00 0.00 0.00 47 1020.4
20260905120908 66 0.0 0.0 0.00 0.00 0.00 45 1020.5
20260905114648 65 0.0 0.0 0.00 0.00 0.00 50 1020.6
20260905113645 63 0.0 0.0 0.00 0.00 0.00 48 1020.7
20260905112645 65 0.0 0.0 0.00 0.00 0.00 49 1020.7
20260905111644 64 0.0 0.0 0.00 0.00 0.00 52 1020.6
20260905105421 62 0.0 0.0 0.00 0.00 0.00 54 1020.5
20260905104421 64 0.0 0.0 0.00 0.00 0.00 54 1020.3
20260905102157 62 0.0 0.0 0.00 0.00 0.00 58 1020.6
20260905095934 62 0.0 0.0 0.00 0.00 0.00 62 1020.7
20260905093706 60 0.0 0.0 0.00 0.00 0.00 65 1020.8
20260905091443 60 0.0 0.0 0.00 0.00 0.00 68 1020.8
20260905090443 59 0.0 0.0 0.00 0.00 0.00 70 1020.8
20260905082955 57 0.0 0.0 0.00 0.00 0.00 81 1020.7
20260905081955 56 0.0 0.0 0.00 0.00 0.00 84 1020.9
20260905080955 56 0.0 0.0 0.00 0.00 0.00 85 1020.6
20260905075955 56 0.0 0.0 0.00 0.00 0.00 84 1020.4
20260905074955 55 0.0 0.0 0.00 0.00 0.00 85 1020.2
20260905073955 55 0.0 0.0 0.00 0.00 0.00 86 1020.1